Overview Statistics Trail Chart Weather Telemetry Raw packets
 

This is the latest recevied weather packets stored in our database for station/object W4SNA-3. If no packets are shown the sender has not sent any weather packets the latest 10 day(s).

<< 32 33 34 35 36 37 38 >>
Time Temp. Humidity Pressure Rain* Wind** Luminosity Snow
1788387052 28.33° C 68% 1020.7 hPa 0 mm - - -
1788386773 28.33° C 66% 1020.8 hPa 0 mm - - -
1788386452 28.33° C 67% 1020.8 hPa 0 mm - - -
1788386152 28.89° C 68% 1020.9 hPa 0 mm - - -
1788385853 28.89° C 67% 1020.9 hPa 0 mm - - -
1788385552 28.89° C 67% 1020.9 hPa 0 mm - - -
1788385252 28.89° C 64% 1020.9 hPa 0 mm - - -
1788384953 29.44° C 62% 1020.9 hPa 0 mm - - -
1788384652 29.44° C 62% 1020.9 hPa 0 mm - - -
1788384371 30° C 64% 1020.8 hPa 0 mm - - -
1788384052 30° C 62% 1020.9 hPa 0 mm - - -
1788383752 30° C 63% 1020.8 hPa 0 mm - - -
1788383452 30.56° C 62% 1020.7 hPa 0 mm - - -
1788383166 30.56° C 63% 1020.8 hPa 0 mm - - -
1788382852 30.56° C 62% 1020.7 hPa 0 mm - - -
1788382568 30.56° C 64% 1020.7 hPa 0 mm - - -
1788382255 30.56° C 63% 1020.7 hPa 0 mm - - -
1788381952 30.56° C 62% 1020.7 hPa 0 mm - - -
1788381652 30.56° C 61% 1020.7 hPa 0 mm - - -
1788381129 30.56° C 60% 1020.6 hPa 0 mm - - -
1788380826 30.56° C 59% 1020.7 hPa 0 mm - - -
1788380526 30.56° C 58% 1020.7 hPa 0 mm - - -
1788380226 30.56° C 59% 1020.6 hPa 0 mm - - -
1788379926 30.56° C 62% 1020.8 hPa 0 mm - - -
1788379626 30.56° C 62% 1020.9 hPa 0 mm - - -

* Rain latest hour (hover to see other rain measurements)
** Current wind speed in m/s (hover to see current wind gust speed)